FW9042 Weather Reports


time (UTC)temp
C
wind
direction
speed
KPH
gust
KPH
rain 1hr
cm
rain 24hr
cm
rain mn
cm
humidity
%
barometer
mb
20220124173034 1 153 9.7 11.3 0.00 0.00 0.00 62 1020.9
20220124172533 1 136 9.7 16.1 0.00 0.00 0.00 63 1020.3
20220124172031 1 158 11.3 14.5 0.00 0.00 0.00 63 1020.6
20220124171530 0 147 11.3 12.9 0.00 0.00 0.00 65 1020.7
20220124171028 1 131 8.0 12.9 0.00 0.00 0.00 65 1020.6
20220124170529 0 156 9.7 12.9 0.00 0.00 0.00 65 1020.6
20220124170029 1 143 8.0 9.7 0.00 0.00 0.00 65 1020.6
20220124165529 0 155 6.4 9.7 0.00 0.00 0.00 66 1020.9
20220124165027 0 153 9.7 12.9 0.00 0.00 0.00 67 1021.0
20220124164526 0 151 12.9 14.5 0.00 0.00 0.00 67 1020.9
20220124164025 0 150 6.4 11.3 0.00 0.00 0.00 67 1020.6
20220124163524 0 150 9.7 12.9 0.00 0.00 0.00 67 1020.9
20220124163023 0 159 4.8 4.8 0.00 0.00 0.00 69 1020.6
20220124162523 0 151 8.0 9.7 0.00 0.00 0.00 68 1020.7
20220124162022 0 169 3.2 3.2 0.00 0.00 0.00 70 1020.9
20220124161522 0 165 8.0 11.3 0.00 0.00 0.00 71 1020.7
20220124161022 0 167 4.8 8.0 0.00 0.00 0.00 72 1020.5
20220124160521 0 153 9.7 11.3 0.00 0.00 0.00 73 1020.5
20220124160021 0 159 11.3 11.3 0.00 0.00 0.00 74 1020.5
20220124155519 -1 180 4.8 4.8 0.00 0.00 0.00 74 1020.6
20220124155019 -1 169 4.8 4.8 0.00 0.00 0.00 76 1020.9
20220124154518 -1 183 6.4 8.0 0.00 0.00 0.00 76 1020.6
20220124154017 -1 189 3.2 3.2 0.00 0.00 0.00 75 1020.7
20220124153517 -1 200 1.6 1.6 0.00 0.00 0.00 75 1020.9
20220124153017 -2 168 4.8 4.8 0.00 0.00 0.00 76 1020.9
20220124152515 -2 194 3.2 3.2 0.00 0.00 0.00 76 1020.4
20220124152015 -2 201 4.8 4.8 0.00 0.00 0.00 76 1020.9
20220124151514 -3 208 3.2 4.8 0.00 0.00 0.00 77 1020.6
20220124151013 -3 197 3.2 4.8 0.00 0.00 0.00 78 1020.9
20220124150511 -3 179 4.8 4.8 0.00 0.00 0.00 79 1020.9
20220124150010 -3 206 3.2 4.8 0.00 0.00 0.00 79 1020.6
20220124145511 -3 187 4.8 4.8 0.00 0.00 0.00 79 1020.7
20220124145009 -3 189 6.4 8.0 0.00 0.00 0.00 80 1020.9
20220124144508 -3 188 3.2 4.8 0.00 0.00 0.00 80 1021.0
20220124144006 -4 188 4.8 4.8 0.00 0.00 0.00 80 1021.0
20220124143504 -4 206 4.8 8.0 0.00 0.00 0.00 81 1020.9
20220124143002 -4 176 4.8 4.8 0.00 0.00 0.00 81 1020.9
20220124142502 -4 181 4.8 4.8 0.00 0.00 0.00 82 1021.1
20220124142000 -4 215 1.6 3.2 0.00 0.00 0.00 82 1021.1
20220124141500 -4 208 1.6 3.2 0.00 0.00 0.00 82 1021.0
20220124140958 -4 179 1.6 3.2 0.00 0.00 0.00 82 1021.0
20220124140457 -4 180 4.8 8.0 0.00 0.00 0.00 83 1021.1
20220124135957 -5 193 3.2 4.8 0.00 0.00 0.00 85 1020.9
20220124135455 -5 218 3.2 3.2 0.00 0.00 0.00 85 1021.0
20220124134955 -4 213 1.6 3.2 0.00 0.00 0.00 85 1021.1
20220124134454 -4 209 3.2 3.2 0.00 0.00 0.00 86 1021.0
20220124133954 -4 193 3.2 4.8 0.00 0.00 0.00 86 1021.0
20220124133453 -4 210 3.2 3.2 0.00 0.00 0.00 86 1020.9
20220124132951 -4 201 3.2 3.2 0.00 0.00 0.00 86 1021.2
20220124132450 -5 212 1.6 3.2 0.00 0.00 0.00 85 1021.0
20220124131951 -4 219 3.2 3.2 0.00 0.00 0.00 85 1020.9
20220124131450 -4 186 3.2 3.2 0.00 0.00 0.00 85 1021.2
20220124130948 -4 186 1.6 1.6 0.00 0.00 0.00 84 1021.1
20220124130447 -4 209 4.8 4.8 0.00 0.00 0.00 84 1021.3
20220124125946 -4 226 1.6 1.6 0.00 0.00 0.00 83 1021.0
20220124125444 -4 213 4.8 4.8 0.00 0.00 0.00 83 1021.2
20220124124944 -4 188 3.2 3.2 0.00 0.00 0.00 82 1021.2
20220124124443 -4 190 4.8 4.8 0.00 0.00 0.00 82 1021.1
20220124123941 -4 178 4.8 4.8 0.00 0.00 0.00 81 1020.9
20220124123440 -4 183 4.8 8.0 0.00 0.00 0.00 81 1021.2
20220124122939 -4 178 1.6 3.2 0.00 0.00 0.00 81 1021.4
20220124122438 -5 206 3.2 3.2 0.00 0.00 0.00 82 1021.3
20220124121939 -5 215 1.6 1.6 0.00 0.00 0.00 81 1021.2
20220124121438 -5 216 1.6 1.6 0.00 0.00 0.00 82 1021.2
20220124120937 -5 223 0.0 0.0 0.00 0.00 0.00 81 1021.4
20220124120435 -5 223 0.0 0.0 0.00 0.00 0.00 81 1021.6
20220124115933 -5 223 0.0 0.0 0.00 0.00 0.00 80 1021.4
20220124115434 -4 221 0.0 0.0 0.00 0.00 0.00 80 1022.0
20220124114933 -4 221 0.0 1.6 0.00 0.00 0.00 80 1021.6
20220124114432 -5 220 1.6 1.6 0.00 0.00 0.00 81 1021.7
20220124113931 -5 222 0.0 0.0 0.00 0.00 0.00 81 1021.6
20220124113429 -5 222 3.2 3.2 0.00 0.00 0.00 80 1021.6
20220124112928 -5 221 1.6 1.6 0.00 0.00 0.00 80 1021.8
20220124112426 -4 220 1.6 3.2 0.00 0.00 0.00 79 1021.8
20220124111925 -5 214 1.6 1.6 0.00 0.00 0.00 80 1021.8
20220124111423 -5 221 0.0 0.0 0.00 0.00 0.00 79 1022.0
20220124110922 -4 221 1.6 1.6 0.00 0.00 0.00 79 1021.8
20220124110420 -4 219 3.2 3.2 0.00 0.00 0.00 79 1021.9
20220124105919 -4 213 1.6 1.6 0.00 0.00 0.00 79 1022.0
20220124105418 -4 218 0.0 0.0 0.00 0.00 0.00 79 1021.9
20220124104918 -4 213 1.6 1.6 0.00 0.00 0.00 79 1022.0
20220124104418 -3 219 1.6 1.6 0.00 0.00 0.00 78 1022.1
20220124103917 -3 218 1.6 1.6 0.00 0.00 0.00 77 1022.2
20220124103416 -3 221 3.2 3.2 0.00 0.00 0.00 78 1022.6
20220124102914 -3 223 1.6 1.6 0.00 0.00 0.00 79 1022.5
20220124102413 -3 222 0.0 0.0 0.00 0.00 0.00 78 1022.5
20220124101913 -3 220 1.6 1.6 0.00 0.00 0.00 77 1022.6
20220124101412 -3 212 0.0 1.6 0.00 0.00 0.00 77 1022.2
20220124100910 -3 200 1.6 1.6 0.00 0.00 0.00 77 1022.5
20220124100410 -3 190 4.8 4.8 0.00 0.00 0.00 77 1022.5
20220124095909 -3 218 1.6 3.2 0.00 0.00 0.00 77 1022.5
20220124095408 -3 223 0.0 0.0 0.00 0.00 0.00 77 1022.8
20220124094907 -3 225 1.6 3.2 0.00 0.00 0.00 77 1022.8
20220124094407 -3 224 1.6 1.6 0.00 0.00 0.00 77 1022.6
20220124093907 -3 223 3.2 3.2 0.00 0.00 0.00 77 1022.7
20220124093405 -3 219 3.2 3.2 0.00 0.00 0.00 77 1022.6
20220124092904 -3 221 4.8 4.8 0.00 0.00 0.00 77 1022.9
20220124092404 -3 221 3.2 3.2 0.00 0.00 0.00 77 1022.8
20220124091903 -3 215 3.2 3.2 0.00 0.00 0.00 77 1023.2
20220124091403 -3 217 1.6 3.2 0.00 0.00 0.00 77 1023.1
20220124090903 -3 222 3.2 3.2 0.00 0.00 0.00 78 1022.9
20220124090402 -3 220 1.6 1.6 0.00 0.00 0.00 78 1023.3
20220124085901 -4 218 3.2 3.2 0.00 0.00 0.00 79 1023.1
20220124085359 -4 214 3.2 3.2 0.00 0.00 0.00 79 1023.1
20220124084857 -4 206 1.6 3.2 0.00 0.00 0.00 80 1023.1
20220124084356 -4 217 1.6 1.6 0.00 0.00 0.00 81 1023.4
20220124083855 -4 217 1.6 1.6 0.00 0.00 0.00 80 1023.1
20220124083355 -5 208 3.2 3.2 0.00 0.00 0.00 81 1023.2
20220124082855 -5 212 1.6 3.2 0.00 0.00 0.00 81 1023.5
20220124082355 -5 218 3.2 3.2 0.00 0.00 0.00 81 1023.4
20220124081855 -5 221 1.6 1.6 0.00 0.00 0.00 80 1023.5
20220124081353 -5 221 0.0 1.6 0.00 0.00 0.00 80 1023.4
20220124080852 -4 221 1.6 1.6 0.00 0.00 0.00 80 1023.9
20220124080351 -4 220 0.0 0.0 0.00 0.00 0.00 80 1024.0
20220124075849 -4 220 1.6 1.6 0.00 0.00 0.00 79 1023.6
20220124075348 -3 220 1.6 1.6 0.00 0.00 0.00 79 1024.0
20220124074847 -3 219 1.6 1.6 0.00 0.00 0.00 79 1023.7
20220124074348 -4 219 3.2 3.2 0.00 0.00 0.00 79 1023.9
20220124073847 -4 219 1.6 3.2 0.00 0.00 0.00 79 1024.0
20220124073346 -4 217 3.2 3.2 0.00 0.00 0.00 79 1024.2
20220124072845 -3 212 3.2 3.2 0.00 0.00 0.00 79 1024.0
20220124072343 -3 199 1.6 3.2 0.00 0.00 0.00 78 1024.0
20220124071841 -3 205 1.6 1.6 0.00 0.00 0.00 77 1024.2
20220124071341 -3 205 1.6 1.6 0.00 0.00 0.00 77 1024.0
20220124070839 -2 212 1.6 1.6 0.00 0.00 0.00 77 1024.1
20220124070339 -3 213 1.6 1.6 0.00 0.00 0.00 77 1024.0
20220124065839 -3 213 1.6 1.6 0.00 0.00 0.00 77 1024.2
20220124065339 -3 222 1.6 1.6 0.00 0.00 0.00 78 1024.3
20220124064839 -3 234 1.6 1.6 0.00 0.00 0.00 78 1024.4
20220124064339 -3 243 1.6 1.6 0.00 0.00 0.00 79 1024.3
20220124063839 -3 239 1.6 1.6 0.00 0.00 0.00 79 1024.3
20220124063339 -3 234 0.0 0.0 0.00 0.00 0.00 80 1024.6
20220124062838 -3 233 0.0 0.0 0.00 0.00 0.00 80 1024.6
20220124062336 -4 231 0.0 1.6 0.00 0.00 0.00 80 1024.6
20220124061835 -3 230 1.6 1.6 0.00 0.00 0.00 79 1024.4
20220124061334 -3 228 0.0 0.0 0.00 0.00 0.00 80 1024.4
20220124060833 -3 228 0.0 0.0 0.00 0.00 0.00 80 1024.8
20220124060331 -3 229 1.6 1.6 0.00 0.00 0.00 80 1024.4
20220124055831 -3 228 0.0 0.0 0.00 0.00 0.00 80 1024.8
20220124055330 -3 228 0.0 0.0 0.00 0.00 0.00 80 1024.7
20220124054829 -3 228 0.0 0.0 0.00 0.00 0.00 80 1024.6
20220124054328 -3 228 1.6 1.6 0.00 0.00 0.00 79 1024.6
20220124053827 -3 227 0.0 0.0 0.00 0.00 0.00 80 1024.6
20220124053325 -3 226 0.0 0.0 0.00 0.00 0.00 79 1024.7
20220124052823 -3 222 0.0 0.0 0.00 0.00 0.00 79 1024.8
20220124052322 -3 227 0.0 0.0 0.00 0.00 0.00 78 1024.7
20220124051822 -3 227 1.6 1.6 0.00 0.00 0.00 78 1024.7
20220124051320 -3 227 1.6 1.6 0.00 0.00 0.00 78 1024.7
20220124050819 -3 227 1.6 1.6 0.00 0.00 0.00 78 1024.6
20220124050319 -3 227 0.0 1.6 0.00 0.00 0.00 78 1024.8
20220124045819 -3 227 3.2 3.2 0.00 0.00 0.00 78 1024.9
20220124045318 -3 227 1.6 3.2 0.00 0.00 0.00 78 1024.9
20220124044817 -3 227 3.2 3.2 0.00 0.00 0.00 79 1024.9
20220124044316 -3 227 1.6 1.6 0.00 0.00 0.00 79 1024.9
20220124043815 -3 226 1.6 1.6 0.00 0.00 0.00 79 1024.9
20220124043315 -3 225 1.6 1.6 0.00 0.00 0.00 79 1024.9
20220124042813 -3 225 3.2 3.2 0.00 0.00 0.00 79 1024.8
20220124042313 -3 224 3.2 3.2 0.00 0.00 0.00 79 1025.1
20220124041811 -3 220 3.2 3.2 0.00 0.00 0.00 79 1025.0
20220124041309 -3 223 3.2 3.2 0.00 0.00 0.00 79 1025.6
20220124040808 -3 222 3.2 3.2 0.00 0.00 0.00 78 1025.6
20220124040306 -3 225 3.2 3.2 0.00 0.00 0.00 78 1025.6
20220124035805 -3 218 3.2 4.8 0.00 0.00 0.00 78 1025.6
20220124035305 -3 223 4.8 4.8 0.00 0.00 0.00 78 1025.2
20220124034803 -2 220 3.2 3.2 0.00 0.00 0.00 78 1025.6
20220124034302 -2 219 1.6 3.2 0.00 0.00 0.00 77 1025.5
20220124033800 -2 218 1.6 3.2 0.00 0.00 0.00 77 1025.4
20220124033259 -2 218 1.6 1.6 0.00 0.00 0.00 77 1025.4
20220124032756 -2 216 3.2 3.2 0.00 0.00 0.00 77 1025.5
20220124032255 -2 210 1.6 1.6 0.00 0.00 0.00 77 1025.4
20220124031754 -2 218 0.0 1.6 0.00 0.00 0.00 78 1025.4
20220124031254 -2 216 1.6 1.6 0.00 0.00 0.00 78 1025.4
20220124030752 -2 220 0.0 0.0 0.00 0.00 0.00 77 1025.5
20220124030250 -2 219 1.6 1.6 0.00 0.00 0.00 77 1025.4
20220124025749 -2 217 1.6 1.6 0.00 0.00 0.00 77 1025.5
20220124025248 -2 217 1.6 1.6 0.00 0.00 0.00 77 1025.6
20220124024747 -2 217 1.6 3.2 0.00 0.00 0.00 77 1025.7
20220124024245 -2 222 1.6 1.6 0.00 0.00 0.00 77 1025.2
20220124023743 -2 225 3.2 3.2 0.00 0.00 0.00 77 1025.5
20220124023242 -1 237 1.6 1.6 0.00 0.00 0.00 77 1025.2
20220124022740 -1 237 1.6 1.6 0.00 0.00 0.00 76 1025.6
20220124022238 -1 244 0.0 0.0 0.00 0.00 0.00 75 1025.2
20220124021737 -1 251 0.0 0.0 0.00 0.00 0.00 75 1025.4
20220124021236 -1 250 0.0 1.6 0.00 0.00 0.00 75 1025.5
20220124020735 -1 250 0.0 0.0 0.00 0.00 0.00 74 1025.1
20220124020234 -1 256 1.6 1.6 0.00 0.00 0.00 74 1025.4
20220124015733 -1 265 0.0 1.6 0.00 0.00 0.00 73 1025.5
20220124015232 0 294 1.6 3.2 0.00 0.00 0.00 73 1025.4
20220124014730 0 285 1.6 1.6 0.00 0.00 0.00 72 1025.6
20220124014229 0 271 1.6 1.6 0.00 0.00 0.00 71 1025.4
20220124013727 0 282 3.2 3.2 0.00 0.00 0.00 70 1025.2
20220124013226 0 294 1.6 3.2 0.00 0.00 0.00 70 1025.1
20220124012724 0 292 1.6 1.6 0.00 0.00 0.00 69 1025.5
20220124012224 0 307 1.6 3.2 0.00 0.00 0.00 69 1025.6
20220124011722 0 297 1.6 3.2 0.00 0.00 0.00 68 1025.4
20220124011221 0 16 3.2 3.2 0.00 0.00 0.00 68 1025.5
20220124010720 0 12 4.8 4.8 0.00 0.00 0.00 67 1025.6
20220124010220 0 10 3.2 3.2 0.00 0.00 0.00 67 1025.5
20220124005719 0 325 3.2 3.2 0.00 0.00 0.00 66 1025.6
20220124005217 0 299 3.2 3.2 0.00 0.00 0.00 66 1025.6
20220124004718 0 331 4.8 4.8 0.00 0.00 0.00 66 1025.4
20220124004216 0 297 3.2 3.2 0.00 0.00 0.00 66 1025.6
20220124003715 0 24 3.2 3.2 0.00 0.00 0.00 65 1025.4
20220124003213 1 315 0.0 1.6 0.00 0.00 0.00 65 1025.5
20220124002711 1 291 3.2 3.2 0.00 0.00 0.00 65 1025.1
20220124002210 1 278 1.6 1.6 0.00 0.00 0.00 64 1025.5
20220124001708 1 263 0.0 0.0 0.00 0.00 0.00 64 1025.5
20220124001207 1 277 3.2 3.2 0.00 0.00 0.00 63 1025.4
20220124000708 1 339 1.6 1.6 0.00 0.00 0.00 63 1025.5
20220124000206 2 214 0.0 0.0 0.00 0.00 0.00 62 1025.4
20220123235704 2 251 1.6 1.6 0.00 0.00 0.00 61 1025.0
20220123235203 2 301 3.2 3.2 0.00 0.00 0.00 60 1025.7
20220123234702 2 241 1.6 1.6 0.00 0.00 0.00 62 1025.6
20220123234202 2 281 4.8 4.8 0.00 0.00 0.00 59 1025.6
20220123233701 2 304 3.2 3.2 0.00 0.00 0.00 61 1025.5
20220123233201 2 307 4.8 4.8 0.00 0.00 0.00 61 1025.8
20220123232700 2 266 1.6 1.6 0.00 0.00 0.00 61 1025.7
20220123232200 2 256 3.2 3.2 0.00 0.00 0.00 61 1025.7
20220123231656 2 10 4.8 8.0 0.00 0.00 0.00 62 1025.5
20220123231156 2 26 4.8 4.8 0.00 0.00 0.00 61 1025.8
20220123230654 2 53 4.8 4.8 0.00 0.00 0.00 62 1026.1
20220123230152 2 36 4.8 4.8 0.00 0.00 0.00 62 1026.1
20220123225650 2 291 1.6 3.2 0.00 0.00 0.00 61 1026.1
20220123225148 2 22 4.8 4.8 0.00 0.00 0.00 62 1026.1
20220123224648 2 51 6.4 8.0 0.00 0.00 0.00 62 1026.2
20220123224148 2 356 4.8 8.0 0.00 0.00 0.00 62 1026.2
20220123223647 2 61 4.8 4.8 0.00 0.00 0.00 62 1026.2
20220123223147 2 92 1.6 3.2 0.00 0.00 0.00 62 1026.1
20220123222645 2 299 6.4 9.7 0.00 0.00 0.00 60 1026.3
20220123222145 2 355 3.2 3.2 0.00 0.00 0.00 62 1026.2
20220123221645 2 267 1.6 3.2 0.00 0.00 0.00 62 1026.4
20220123221144 2 354 1.6 3.2 0.00 0.00 0.00 62 1026.3
20220123220644 2 11 8.0 11.3 0.00 0.00 0.00 61 1026.5
20220123220142 2 80 4.8 8.0 0.00 0.00 0.00 61 1026.4
20220123215642 2 26 6.4 8.0 0.00 0.00 0.00 60 1026.4
20220123215140 2 85 9.7 11.3 0.00 0.00 0.00 61 1026.5
20220123214638 2 2 8.0 11.3 0.00 0.00 0.00 60 1026.2
20220123214138 2 44 8.0 11.3 0.00 0.00 0.00 58 1026.5
20220123213637 2 4 4.8 4.8 0.00 0.00 0.00 58 1026.4
20220123213137 2 292 4.8 8.0 0.00 0.00 0.00 58 1026.4
20220123212636 2 75 3.2 8.0 0.00 0.00 0.00 59 1026.4
20220123212135 2 102 1.6 4.8 0.00 0.00 0.00 59 1026.3
20220123211635 2 291 6.4 9.7 0.00 0.00 0.00 58 1026.4
20220123211133 2 331 4.8 8.0 0.00 0.00 0.00 58 1026.5
20220123210632 2 97 3.2 3.2 0.00 0.00 0.00 58 1026.4
20220123210132 2 213 1.6 1.6 0.00 0.00 0.00 59 1026.6
20220123205632 2 104 6.4 8.0 0.00 0.00 0.00 59 1026.7
20220123205131 2 113 3.2 3.2 0.00 0.00 0.00 58 1026.9
20220123204630 2 268 1.6 3.2 0.00 0.00 0.00 59 1026.7
20220123204128 2 169 3.2 3.2 0.00 0.00 0.00 58 1026.6
20220123203628 2 100 6.4 9.7 0.00 0.00 0.00 58 1026.7
20220123203126 1 164 3.2 4.8 0.00 0.00 0.00 60 1026.9
20220123202625 1 243 1.6 3.2 0.00 0.00 0.00 59 1026.6
20220123202125 2 22 6.4 8.0 0.00 0.00 0.00 58 1026.9
20220123201624 2 73 4.8 4.8 0.00 0.00 0.00 58 1027.0
20220123201124 2 71 3.2 4.8 0.00 0.00 0.00 58 1027.1
20220123200623 2 213 0.0 1.6 0.00 0.00 0.00 60 1027.0
20220123200121 1 100 4.8 8.0 0.00 0.00 0.00 61 1027.7
20220123195620 2 120 6.4 9.7 0.00 0.00 0.00 58 1027.4
20220123195119 1 286 3.2 3.2 0.00 0.00 0.00 61 1027.8
20220123194618 1 259 1.6 3.2 0.00 0.00 0.00 60 1027.8
20220123194117 3 124 3.2 4.8 0.00 0.00 0.00 56 1027.6
20220123193617 2 208 3.2 3.2 0.00 0.00 0.00 56 1027.6
20220123193116 2 220 1.6 3.2 0.00 0.00 0.00 58 1027.8
20220123192615 2 168 3.2 3.2 0.00 0.00 0.00 57 1027.8
20220123192114 2 204 0.0 0.0 0.00 0.00 0.00 60 1027.8
20220123191613 2 216 6.4 8.0 0.00 0.00 0.00 58 1027.9
20220123191113 2 200 3.2 3.2 0.00 0.00 0.00 58 1028.0
20220123190613 2 227 1.6 1.6 0.00 0.00 0.00 57 1028.1
20220123190111 1 209 0.0 1.6 0.00 0.00 0.00 62 1028.2
20220123185611 1 118 3.2 8.0 0.00 0.00 0.00 61 1028.5
20220123185112 1 171 3.2 3.2 0.00 0.00 0.00 59 1028.6
20220123184611 2 113 8.0 9.7 0.00 0.00 0.00 58 1028.6
20220123184111 2 151 6.4 8.0 0.00 0.00 0.00 58 1028.7
20220123183611 0 198 1.6 1.6 0.00 0.00 0.00 64 1028.7
20220123183109 0 122 3.2 3.2 0.00 0.00 0.00 63 1028.7
20220123182609 1 189 1.6 3.2 0.00 0.00 0.00 62 1028.8
20220123182109 0 164 3.2 3.2 0.00 0.00 0.00 63 1029.1
20220123181608 0 225 1.6 1.6 0.00 0.00 0.00 65 1028.9
20220123181106 1 206 1.6 1.6 0.00 0.00 0.00 62 1028.9
20220123180605 0 273 1.6 1.6 0.00 0.00 0.00 64 1029.3
20220123180103 1 163 1.6 1.6 0.00 0.00 0.00 62 1029.1
20220123175603 1 201 0.0 0.0 0.00 0.00 0.00 60 1029.3
20220123175101 1 227 0.0 0.0 0.00 0.00 0.00 61 1029.5
20220123174601 0 218 0.0 0.0 0.00 0.00 0.00 65 1029.5
20220123174100 0 237 0.0 0.0 0.00 0.00 0.00 62 1029.4
20220123173559 1 217 1.6 1.6 0.00 0.00 0.00 59 1029.3